GSLV R/B

Last updated on Jan. 19, 2019, 12:02 a.m. UTC

1 43865U 18105B   19017.27149172  .00018930 -95315-6  29709-3 0  9993
2 43865  19.4596 182.5459 7466543 197.3602 106.7337  2.09739667   612
UTC
Height (km)
Latitude
Longitude
Inclination
Orbital Period
UTC large
Height (km)
Speed (km/s)
/
Latitude / Longitude
Inclination (degrees)
Orbital Period (minutes)
Azimuth
Elevation
Range (km)
Doppler Factor
iOS Compass Heading
iOS Angle

Next 30 passes for location: Hong Kong

Rise time Rise Azimuth (degrees) Set time Set Azimuth (degrees) Duration Max altitude (degrees)

No matching passes for this satellites